Flag for France Weather past 2 weeks in Rennes, France

Now
68 °F

Passing clouds.


Feels Like: 68 °F
Forecast: 46 / 70 °F
Wind: 12 mph from North

Location: Rennes Airport

Current Time: May 26, 2015 at 4:13:18 PM

Latest Report: May 26, 2015 at 3:30 PM


Visibility: N/A

Pressure: 30.24 "Hg

Humidity: 53%

Dew point: 50 °F

Location of RennesLocation

Historic Weather in Rennes — Graph

°F

Rennes temperature yesterday

Maximum temperature yesterday: 66 °F (at 4:30 PM)
Minimum temperature yesterday: 54 °F (at 10:30 PM)
Average temperature yesterday: 59 °F

Past Weeks' High & Low Weather Summary

 TemperatureHumidityPressure
High75 °F (May 11, 3:30 PM)100% (May 12, 4:00 AM)30.45 "Hg (May 12, 4:00 AM)
Low39 °F (May 17, 6:00 AM)39% (May 14, 3:00 PM)29.83 "Hg (May 14, 9:30 AM)
Average55 °F77%30.16 "Hg
* Reported May 11 3:00 PM — May 26 3:00 PM, Rennes, Weather by CustomWeather, © 2015

Note: Actual official high and low records may vary slightly from our data, if they occured in-between our weather recording intervals... More about our weather records

Advertising

Rennes weather history for previous 24 hours

 ConditionsComfort  
Time TempWeatherWind HumidityBarometerVisibility
3:00 PM
Tue, May 26
68 °FPartly sunny.10 mph53%30.24 "HgN/A
2:30 PM68 °FPartly sunny.9 mph56%30.24 "HgN/A
2:00 PM64 °FBroken clouds.8 mph60%30.24 "HgN/A
1:30 PM64 °FOvercast.9 mph60%30.24 "HgN/A
1:00 PM64 °FBroken clouds.10 mph64%30.24 "HgN/A
12:30 PM64 °FPartly sunny.7 mph64%30.24 "HgN/A
12:00 PM63 °FPartly sunny.7 mph64%30.24 "HgN/A
11:30 AM63 °FPassing clouds.7 mph68%30.24 "HgN/A
11:00 AM61 °FPartly sunny.7 mph72%30.24 "HgN/A
10:30 AM61 °FPartly sunny.6 mph72%30.24 "HgN/A
10:00 AM59 °FPartly sunny.5 mph82%30.24 "HgN/A
9:30 AM57 °FPartly sunny.3 mph88%30.24 "HgN/A
9:00 AM55 °FPartly sunny.3 mph88%30.24 "HgN/A
8:30 AM54 °FLow clouds.5 mph94%30.21 "HgN/A
8:00 AM52 °FLow clouds.3 mph94%30.21 "Hg6 mi
7:30 AM50 °FScattered clouds.5 mph100%30.21 "Hg4 mi
7:00 AM50 °FClear.3 mph94%30.18 "Hg4 mi
6:30 AM50 °FClear.3 mph94%30.18 "Hg4 mi
6:00 AM48 °FClear.5 mph100%30.18 "Hg4 mi
5:30 AM50 °FClear.3 mph94%30.18 "Hg10 mi
4:30 AM52 °FClear.2 mph88%30.18 "Hg10 mi
4:00 AM52 °FClear.5 mph94%30.18 "Hg10 mi
3:30 AM52 °FOvercast.6 mph94%30.18 "HgN/A
3:00 AM50 °FPassing clouds.5 mph94%30.18 "HgN/A
2:30 AM50 °FPartly cloudy.5 mph94%30.18 "HgN/A
2:00 AM52 °FOvercast.3 mph94%30.18 "HgN/A
1:30 AM50 °FPassing clouds.6 mph94%30.18 "HgN/A
1:00 AM52 °FPassing clouds.6 mph88%30.18 "HgN/A
12:30 AM54 °FMostly cloudy.7 mph82%30.15 "HgN/A
12:00 AM54 °FMostly cloudy.7 mph82%30.15 "HgN/A
11:30 PM
Mon, May 25
54 °FOvercast.5 mph82%30.15 "HgN/A
10:30 PM54 °FPartly sunny.8 mph77%30.15 "HgN/A
10:00 PM55 °FOvercast.9 mph72%30.15 "HgN/A
9:30 PM57 °FOvercast.13 mph67%30.15 "HgN/A
9:00 PM57 °FOvercast.13 mph72%30.15 "HgN/A
8:30 PM59 °FOvercast.10 mph72%30.12 "HgN/A
8:00 PM61 °FOvercast.12 mph68%30.12 "HgN/A
7:30 PM61 °FOvercast.12 mph63%30.12 "HgN/A
7:00 PM63 °FOvercast.14 mph64%30.12 "HgN/A
6:30 PM64 °FPartly sunny.13 mph56%30.12 "HgN/A
6:00 PM64 °FPartly sunny.14 mph56%30.12 "HgN/A
5:30 PM64 °FPassing clouds.13 mph52%30.12 "HgN/A
5:00 PM66 °FPartly sunny.14 mph52%30.12 "HgN/A
4:30 PM66 °FPassing clouds.12 mph56%30.12 "HgN/A
4:00 PM64 °FScattered clouds.15 mph56%30.12 "HgN/A
Weather by CustomWeather, © 2015

See weather overviewHow to use our weather pages